User: anonymous   Login
Location: Unspecified
(0.0000°N, 0.0000°E)
Time: 04:11:23
(UTC+02:00)
Language:

NATO 3D Rocket - Orbit

View from above orbital plane
View from above orbital plane
View from above satellite
View from above satellite

Ground track
Ground track

The orbit data is extracted from the following two-line orbital elements,

1 15392U 84115B   16182.94355161 +.00000198 +00000-0 +49568-4 0  9995
2 15392 021.4909 116.1463 1034449 034.0455 332.2180 12.45530552422396
Epoch (UTC): 30 June 2016 22:38:42
Eccentricity: 0.1034449
inclination: 21.4909°
perigee height: 670 km
apogee height: 2296 km
right ascension of ascending node: 116.1463°
argument of perigee: 34.0455°
revolutions per day: 12.45530552
mean anomaly at epoch: 332.2180°
orbit number at epoch: 42239

The dashed part of the orbit path shows where the satellite is in the earth's shadow,  

DLR